Simultaneous Nadir Overpasses (SNOs) Predictions

Prediction of SNOs between AQUA and METOP-C Satellite Orbit:

Table of predicted SNOs for the next 14.0 days since TLE Epoch: 7/10/2020
Index Date (AQUA) Time (AQUA) Lat,Lon (AQUA) SZA (AQUA ) Date (METOP-C) Time (METOP-C) Lat,Lon (METOP-C) SZA (METOP-C ) Distance(km) Time Diff (sec)
1 07/13/2020 08:49:09 73.68, 42.30 51.99 07/13/2020 08:48:00 73.69, 42.20 52.02 3.22 69
2 07/13/2020 09:38:37 -73.80,-150.32 127.88 07/13/2020 09:38:40 -73.77,-150.27 127.90 3.14 3
3 07/13/2020 10:28:05 73.83, 17.25 52.17 07/13/2020 10:29:18 73.86, 17.29 52.19 4.31 73
4 07/16/2020 04:23:24 73.69, 108.70 52.45 07/16/2020 04:22:21 73.70, 108.63 52.48 2.26 63
5 07/16/2020 05:12:51 -73.76, -83.80 127.47 07/16/2020 05:13:01 -73.78, -83.85 127.45 2.66 10
6 07/16/2020 06:02:24 74.05, 83.18 52.86 07/16/2020 06:03:35 74.07, 84.20 52.83 31.10 71
7 07/18/2020 23:57:40 73.71, 175.10 52.97 07/18/2020 23:56:43 73.71, 175.06 52.98 1.22 57
8 07/19/2020 00:47:07 -73.78, -17.41 126.96 07/19/2020 00:47:23 -73.78, -17.43 126.95 0.96 16
9 07/19/2020 01:36:45 74.33, 148.98 53.65 07/19/2020 01:37:52 74.33, 151.25 53.55 68.24 67
10 07/21/2020 19:31:56 73.73,-118.52 53.54 07/21/2020 19:31:05 73.71,-118.51 53.52 2.46 51
11 07/21/2020 20:21:23 -73.80, 48.98 126.39 07/21/2020 20:21:45 -73.79, 48.99 126.41 1.52 22
12 07/24/2020 15:06:10 73.71, -52.03 54.09 07/24/2020 15:05:26 73.72, -52.09 54.11 1.96 44
13 07/24/2020 15:55:37 -73.78, 115.46 125.83 07/24/2020 15:56:06 -73.79, 115.41 125.82 2.20 29
